1998-067PV

Last updated on Sun Feb 03 2019 00:02:04 GMT+0000 (Coordinated Universal Time)

1 44029U 98067PV 19032.73359447 .00019455 00000-0 30417-3 0 9998 2 44029 51.6421 314.8694 0004760 4.1651 355.8124 15.53776032 253
UTC large
Height (km)
Speed (km/s)
/
Latitude / Longitude
Inclination (degrees)
Orbital Period (minutes)
Azimuth
Elevation
Range (km)
Doppler Factor

Next 0 passes for location: London (51.5072 / 0.1276)

Sorry there are no passes over London.